Ingeniero Alberto Acuna Ongay International Airport
MMCP : rendu visible

Aérodrome :











RETROUVEZ-NOUS SUR...

 
LOGIN :

S'inscrire | Disclaimer

   EN    FR    IT 

 









Légende :    VFR   VFR Marginal   IFR   IFR Intensif   IFR Très Intensif
Visi : 
Plafond : 
>= 8 km
>= 3000ft
5 à 8 km
1000 à 3000 ft
1500m à 5 km
500 à 1000 ft
800 à 1500m
200 à 500 ft
< 800m
< 200 ft
Symboles :   Orages  Brouillard  Fortes neiges  Fortes précipitations  Vent > 20 kt






- Altitude de l'aérodrome : 34 ft
- Code IATA : CPE


MMCP - Ingeniero Alberto Acuna Ongay International

METARs EXPIRÉS :
  • 270345Z 36015G25KT 7SM SCT015 SCT070 21/17 A3015 RMK 8/620 HZY
  • 270244Z 36020G35KT 6SM SCT010 BKN015 OVC070 22/17 A3011 RMK 8/62/ HZY

TAF TAF MMCP
Valide du 27 à 06h jusqu'au 28 à 06h UTC


270512Z 2706/2806 36015G25KT 6SM HZ BKN015 OVC070
TEMPO 2712/2716 4SM -RA
FM271800 03010G20KT P6SM BKN020 BKN070
FM280400 34015KT 6SM HZ BKN020 BKN050



MET'MAP, la Météo Aéronautique d'un coup d'oeil ! - Copyright ORBIFLY Décembre 2007 - Disclaimer

ORBIFLY MET'MAP TEAM :

Programmation & Développement : Alexandra Zaïnal
Sur une idée originale de : Baudouin d'Aumeries
Assistance à la programmation : Marc-Olivier Méhu
Soutien technique & logistique : Manuel Goepfert

Contact : metmap@orbifly.com




SOURCES & CREDITS :

   NOAA       Earth
Advisory